View from above orbital plane
|
View from above satellite
|
Ground track
|
The orbit data is extracted from the following two-line orbital elements,
1 10521U 77119B 21021.61754877 -.00000004 00000-0 71707-5 0 9997
2 10521 74.0289 354.1317 0019973 43.5462 316.7266 14.40807877261554
Epoch (UTC): | 21 January 2021 14:49:16 |
Eccentricity: | 0.0019973 |
inclination: | 74.0289° |
perigee height: | 741 km |
apogee height: | 770 km |
right ascension of ascending node: | 354.1317° |
argument of perigee: | 43.5462° |
revolutions per day: | 14.40807877 |
mean anomaly at epoch: | 316.7266° |
orbit number at epoch: | 26155 |
The dashed part of the orbit path shows where the satellite is in the earth's shadow,
|
|